Tanana, AK

8:10 AM AKDT on July 27, 2017 (GMT -0800)
Calhoun Memorial

Weather History for PATA - May, 2014

Change the Weather History Date:

Saturday, May 31, 2014

  Actual Average Record
Temperature  
Mean Temperature 54 °F -  
Max Temperature 64 °F 65 °F 83 °F (1958)
Min Temperature 44 °F 42 °F 30 °F (2006)
Degree Days  
Heating Degree Days 11    
Growing Degree Days 4 (Base 50)    
Moisture  
Dew Point 41 °F    
Average Humidity 68    
Maximum Humidity 90    
Minimum Humidity 44    
Precipitation  
Precipitation 0.24 in - - ()
Sea Level Pressure  
Sea Level Pressure 29.61 in    
Wind  
Wind Speed 8 mph (SSW)    
Max Wind Speed 18 mph    
Max Gust Speed 25 mph    
Visibility 9 miles    
Events Rain    
Averages and records for this station are not official NWS values.
T = Trace of Precipitation, MM = Missing Value Source: NWS Daily Summary

Daily Weather History Graph

Daily Weather History Graph

Search for Another Location

Airport or City:

Trip Planner

Search our weather history database for the weather conditions in past years. The results will help you decide how hot, cold, wet, or windy it might be!

Date:

Astronomy

May. 31, 2014 Rise Set
Actual Time 3:45 AM AKDT 12:30 AM AKDT
Civil Twilight Sun does not set Sun does not set
Nautical Twilight Sun does not set Sun does not set
Astronomical Twilight Sun does not set Sun does not set
Moon 7:31 AM AKDT (5/31) 1:13 AM AKDT (5/31)
Length of Visible Light 24h 00m
Length of Day
20h 44m
Waxing Crescent, 9% of the Moon is Illuminated
May 31
Waxing Crescent
Jun 5
First Quarter
Jun 12
Full
Jun 19
Last Quarter
Jun 27
New

Hourly Weather History & Observations

Time (AKDT) Temp. Windchill Dew Point Humidity Pressure Visibility Wind Dir Wind Speed Gust Speed Precip Events Conditions
12:52 AM 61.0 °F - 39.0 °F 44% 29.48 in 10.0 mi ESE 8.1 mph - N/A   Overcast
1:52 AM 55.9 °F - 39.9 °F 55% 29.47 in 10.0 mi NE 3.5 mph - N/A   Mostly Cloudy
2:52 AM 55.0 °F - 39.0 °F 55% 29.46 in 10.0 mi NE 6.9 mph - N/A   Mostly Cloudy
3:52 AM 55.0 °F - 39.0 °F 55% 29.45 in 10.0 mi ENE 6.9 mph - N/A   Scattered Clouds
4:52 AM 54.0 °F - 39.0 °F 57% 29.45 in 10.0 mi NNE 6.9 mph - N/A   Clear
5:52 AM 55.0 °F - 39.0 °F 55% 29.44 in 10.0 mi NNE 8.1 mph - N/A   Scattered Clouds
6:52 AM 55.9 °F - 39.0 °F 53% 29.45 in 10.0 mi NE 6.9 mph - N/A   Overcast
7:52 AM 57.0 °F - 39.0 °F 51% 29.45 in 10.0 mi ENE 4.6 mph - N/A   Overcast
8:52 AM 59.0 °F - 37.0 °F 44% 29.44 in 10.0 mi East 4.6 mph - N/A   Overcast
9:52 AM 59.0 °F - 42.1 °F 53% 29.46 in 10.0 mi South 3.5 mph - N/A   Overcast
10:52 AM 57.9 °F - 44.1 °F 60% 29.47 in 10.0 mi WSW 4.6 mph - N/A   Overcast
11:52 AM 60.1 °F - 39.9 °F 47% 29.49 in 10.0 mi South 5.8 mph - N/A   Overcast
12:52 PM 63.0 °F - 41.0 °F 45% 29.50 in 10.0 mi West 5.8 mph - N/A   Overcast
1:52 PM 59.0 °F - 46.0 °F 62% 29.53 in 10.0 mi SW 18.4 mph 25.3 mph N/A   Overcast
2:52 PM 54.0 °F - 48.0 °F 80% 29.59 in 10.0 mi WSW 15.0 mph 21.9 mph 0.01 in Rain Light Rain
3:52 PM 50.0 °F - 46.9 °F 89% 29.66 in 6.0 mi SW 11.5 mph 17.3 mph 0.03 in Rain Light Rain
4:52 PM 48.0 °F - 44.1 °F 86% 29.71 in 9.0 mi SW 16.1 mph 21.9 mph 0.02 in Rain Light Rain
5:52 PM 45.0 °F 39.7 °F 41.0 °F 86% 29.76 in 10.0 mi SW 10.4 mph - 0.02 in Rain Light Rain
6:52 PM 45.0 °F 40.1 °F 42.1 °F 90% 29.79 in 4.0 mi SSW 9.2 mph - 0.04 in Rain Light Rain
7:52 PM 45.0 °F 39.7 °F 42.1 °F 90% 29.81 in 5.0 mi SSW 10.4 mph 17.3 mph 0.05 in Rain Light Rain
8:52 PM 45.0 °F 40.1 °F 42.1 °F 90% 29.84 in 7.0 mi SSW 9.2 mph - 0.04 in Rain Light Rain
9:52 PM 45.0 °F 40.6 °F 42.1 °F 90% 29.85 in 10.0 mi SSW 8.1 mph - 0.03 in Rain Light Rain
10:52 PM 45.0 °F 40.6 °F 41.0 °F 86% 29.88 in 10.0 mi SSW 8.1 mph - 0.00 in   Overcast
11:21 PM 45.0 °F 41.2 °F 41.0 °F 86% 29.89 in 10.0 mi SW 6.9 mph - N/A   Overcast
11:52 PM 44.1 °F 40.8 °F 41.0 °F 89% 29.92 in 10.0 mi SSW 5.8 mph - 0.00 in   Overcast